Back to catalog

SL-6 R/B(2)

AliveHEO
NORAD 15270·ROCKET BODY·🇷🇺 Russia

Launched Sep 7, 1984 from Plesetsk Cosmodrome

Loading…

Next Passes (next 24 hours)

TLE

FreshSource: Space-Track

Epoch: Sep 13, 2026, 04:49 UTC

1 15270U 84096D   26256.20106811  .00000331  00000-0  00000+0 0  9998
2 15270  71.0523  45.3397 5611459 341.1759   4.3041  2.04768752314132

Track SL-6 R/B(2) in real time with AllMySat

Download on the App Store